Location: Delmar
(42.6220°N, 73.8326°W)
Time: 05:28:07
(UTC+00:00)

Cosmos 1892 - Pass Details

Date: 29 October 2020
Orbit: 504 x 523 km, 82.5° (Epoch: 27 November)

Event Time Altitude Azimuth Distance (km) Brightness Sun altitude
Rises 23:15:21 0° 350° (N) 2,665 6.4 -16.0°
Reaches altitude 10° 23:17:30 10° 348° (NNW) 1,772 5.5 -16.4°
Maximum altitude 23:21:23 74° 264° (W) 551 2.9 -17.1°
Drops below altitude 10° 23:25:14 10° 179° (S) 1,756 5.4 -17.8°
Sets 23:27:21 0° 178° (S) 2,638 6.3 -18.2°
